| time (UTC) | temp F | wind direction | speed knots | gust knots | rain 1hr in | rain 24hr in | rain mn in | humidity % | barometer mb |
| 20260503055104 | 57 | 0.0 | 0.0 | 0.00 | 0.00 | 0.00 | 53 | 1019.4 | |
| 20260503054024 | 57 | 0.0 | 0.9 | 0.00 | 0.00 | 0.00 | 53 | 1019.4 | |
| 20260503053049 | 58 | 131 | 0.0 | 0.9 | 0.00 | 0.00 | 0.00 | 52 | 1019.3 |
| 20260503052113 | 58 | 60 | 0.0 | 0.9 | 0.00 | 0.00 | 0.00 | 47 | 1019.2 |
| 20260503051034 | 58 | 0.0 | 0.9 | 0.00 | 0.00 | 0.00 | 48 | 1019.3 | |
| 20260503050058 | 58 | 23 | 0.0 | 0.9 | 0.00 | 0.00 | 0.00 | 47 | 1019.3 |
| 20260503045058 | 58 | 0.0 | 0.9 | 0.00 | 0.00 | 0.00 | 48 | 1019.4 | |
| 20260503044043 | 58 | 54 | 0.0 | 2.6 | 0.00 | 0.00 | 0.00 | 46 | 1019.4 |
| 20260503043107 | 58 | 46 | 0.9 | 1.7 | 0.00 | 0.00 | 0.00 | 46 | 1019.4 |
| 20260503042028 | 58 | 13 | 0.0 | 1.7 | 0.00 | 0.00 | 0.00 | 47 | 1019.3 |
| 20260503041052 | 58 | 352 | 0.9 | 3.5 | 0.00 | 0.00 | 0.00 | 47 | 1019.5 |
| 20260503040116 | 57 | 356 | 0.0 | 1.7 | 0.00 | 0.00 | 0.00 | 49 | 1019.3 |
| 20260503035117 | 58 | 33 | 0.9 | 2.6 | 0.00 | 0.00 | 0.00 | 49 | 1019.6 |
| 20260503034101 | 57 | 74 | 0.9 | 1.7 | 0.00 | 0.00 | 0.00 | 49 | 1019.5 |
| 20260503033022 | 58 | 54 | 0.0 | 1.7 | 0.00 | 0.00 | 0.00 | 49 | 1019.6 |
| 20260503032046 | 58 | 75 | 0.0 | 1.7 | 0.00 | 0.00 | 0.00 | 47 | 1019.6 |
| 20260503031112 | 58 | 18 | 0.0 | 1.7 | 0.00 | 0.00 | 0.00 | 48 | 1019.5 |
| 20260503030031 | 58 | 85 | 0.0 | 1.7 | 0.00 | 0.00 | 0.00 | 48 | 1019.7 |
| 20260503025135 | 58 | 0.0 | 0.0 | 0.00 | 0.00 | 0.00 | 49 | 1019.7 | |
| 20260503024016 | 59 | 359 | 0.0 | 2.6 | 0.00 | 0.00 | 0.00 | 48 | 1019.7 |
| 20260503023040 | 59 | 16 | 0.0 | 2.6 | 0.00 | 0.00 | 0.00 | 48 | 1019.8 |
| 20260503022105 | 59 | 7 | 0.9 | 1.7 | 0.00 | 0.00 | 0.00 | 48 | 1019.9 |
| 20260503021105 | 59 | 35 | 0.0 | 0.9 | 0.00 | 0.00 | 0.00 | 47 | 1019.9 |
| 20260503020049 | 60 | 8 | 0.0 | 0.9 | 0.00 | 0.00 | 0.00 | 47 | 1020.1 |
| 20260503015114 | 60 | 19 | 0.0 | 0.9 | 0.00 | 0.00 | 0.00 | 46 | 1020.0 |
| 20260503014034 | 60 | 33 | 0.0 | 0.9 | 0.00 | 0.00 | 0.00 | 46 | 1020.1 |
| 20260503013139 | 60 | 68 | 0.0 | 0.9 | 0.00 | 0.00 | 0.00 | 46 | 1020.0 |
| 20260503012059 | 61 | 15 | 0.9 | 2.6 | 0.00 | 0.00 | 0.00 | 45 | 1020.0 |
| 20260503011124 | 61 | 12 | 0.9 | 1.7 | 0.00 | 0.00 | 0.00 | 46 | 1020.2 |
| 20260503010108 | 61 | 21 | 0.0 | 1.7 | 0.00 | 0.00 | 0.00 | 45 | 1020.3 |
| 20260503005028 | 61 | 15 | 0.0 | 1.7 | 0.00 | 0.00 | 0.00 | 45 | 1020.3 |
| 20260503004053 | 62 | 6 | 0.0 | 1.7 | 0.00 | 0.00 | 0.00 | 45 | 1020.2 |
| 20260503003117 | 62 | 3 | 0.9 | 2.6 | 0.00 | 0.00 | 0.00 | 43 | 1020.5 |
| 20260503002038 | 62 | 58 | 0.0 | 1.7 | 0.00 | 0.00 | 0.00 | 44 | 1020.5 |
| 20260503001142 | 63 | 19 | 0.9 | 2.6 | 0.00 | 0.00 | 0.00 | 43 | 1020.5 |
| 20260503000022 | 63 | 37 | 0.9 | 2.6 | 0.00 | 0.00 | 0.00 | 44 | 1020.7 |
| 20260502235047 | 63 | 22 | 0.9 | 1.7 | 0.00 | 0.00 | 0.00 | 43 | 1020.7 |
| 20260502234112 | 64 | 59 | 0.9 | 6.1 | 0.00 | 0.00 | 0.00 | 42 | 1020.7 |
| 20260502233032 | 63 | 273 | 0.9 | 2.6 | 0.00 | 0.00 | 0.00 | 43 | 1020.8 |
| 20260502232056 | 64 | 52 | 0.0 | 1.7 | 0.00 | 0.00 | 0.00 | 42 | 1020.7 |
| 20260502231017 | 65 | 47 | 1.7 | 3.5 | 0.00 | 0.00 | 0.00 | 41 | 1020.8 |
| 20260502230041 | 65 | 357 | 1.7 | 5.2 | 0.00 | 0.00 | 0.00 | 40 | 1020.8 |
| 20260502225105 | 65 | 23 | 0.9 | 5.2 | 0.00 | 0.00 | 0.00 | 40 | 1020.7 |
| 20260502224026 | 66 | 22 | 1.7 | 7.8 | 0.00 | 0.00 | 0.00 | 40 | 1020.6 |
| 20260502223130 | 66 | 4 | 1.7 | 6.1 | 0.00 | 0.00 | 0.00 | 40 | 1020.6 |
| 20260502222155 | 65 | 21 | 0.9 | 6.1 | 0.00 | 0.00 | 0.00 | 41 | 1020.4 |
| 20260502221035 | 66 | 9 | 1.7 | 7.8 | 0.00 | 0.00 | 0.00 | 40 | 1020.4 |
| 20260502220139 | 66 | 356 | 0.9 | 6.1 | 0.00 | 0.00 | 0.00 | 40 | 1020.5 |
| 20260502215100 | 66 | 355 | 1.7 | 7.0 | 0.00 | 0.00 | 0.00 | 40 | 1020.5 |
| 20260502214044 | 66 | 45 | 1.7 | 7.8 | 0.00 | 0.00 | 0.00 | 39 | 1020.4 |
| 20260502213109 | 67 | 359 | 2.6 | 7.0 | 0.00 | 0.00 | 0.00 | 39 | 1020.3 |
| 20260502212029 | 67 | 351 | 0.9 | 5.2 | 0.00 | 0.00 | 0.00 | 39 | 1020.2 |
| 20260502211054 | 67 | 18 | 0.9 | 6.1 | 0.00 | 0.00 | 0.00 | 38 | 1020.2 |
| 20260502210118 | 67 | 2 | 1.7 | 6.1 | 0.00 | 0.00 | 0.00 | 38 | 1020.1 |
| 20260502205119 | 67 | 10 | 1.7 | 7.0 | 0.00 | 0.00 | 0.00 | 38 | 1020.1 |
| 20260502204104 | 67 | 5 | 1.7 | 6.1 | 0.00 | 0.00 | 0.00 | 38 | 1020.1 |
| 20260502203023 | 68 | 7 | 0.9 | 5.2 | 0.00 | 0.00 | 0.00 | 38 | 1020.1 |
| 20260502202048 | 68 | 30 | 0.9 | 5.2 | 0.00 | 0.00 | 0.00 | 37 | 1020.0 |
| 20260502201112 | 68 | 73 | 1.7 | 6.1 | 0.00 | 0.00 | 0.00 | 37 | 1020.0 |
| 20260502200113 | 69 | 102 | 0.9 | 5.2 | 0.00 | 0.00 | 0.00 | 36 | 1019.9 |
| 20260502195057 | 69 | 1 | 2.6 | 7.0 | 0.00 | 0.00 | 0.00 | 35 | 1019.8 |
| 20260502194018 | 69 | 53 | 0.9 | 6.1 | 0.00 | 0.00 | 0.00 | 35 | 1019.7 |
| 20260502193041 | 69 | 36 | 1.7 | 8.7 | 0.00 | 0.00 | 0.00 | 35 | 1019.5 |
| 20260502192106 | 69 | 63 | 0.9 | 5.2 | 0.00 | 0.00 | 0.00 | 35 | 1019.6 |
| 20260502191027 | 69 | 62 | 0.9 | 5.2 | 0.00 | 0.00 | 0.00 | 35 | 1019.4 |
| 20260502190051 | 70 | 84 | 0.9 | 5.2 | 0.00 | 0.00 | 0.00 | 34 | 1019.2 |
| 20260502185116 | 70 | 73 | 0.9 | 2.6 | 0.00 | 0.00 | 0.00 | 34 | 1019.1 |
| 20260502184036 | 71 | 80 | 0.9 | 5.2 | 0.00 | 0.00 | 0.00 | 34 | 1019.0 |
| 20260502183101 | 71 | 73 | 0.9 | 2.6 | 0.00 | 0.00 | 0.00 | 33 | 1018.9 |
| 20260502182021 | 71 | 99 | 2.6 | 5.2 | 0.00 | 0.00 | 0.00 | 33 | 1018.7 |
| 20260502181046 | 71 | 115 | 1.7 | 6.1 | 0.00 | 0.00 | 0.00 | 33 | 1018.6 |
| 20260502180150 | 72 | 99 | 1.7 | 3.5 | 0.00 | 0.00 | 0.00 | 32 | 1018.6 |
| 20260502170104 | 75 | 105 | 1.7 | 7.8 | 0.00 | 0.00 | 0.00 | 27 | 1018.3 |
| 20260502164113 | 76 | 122 | 2.6 | 6.1 | 0.00 | 0.00 | 0.00 | 27 | 1018.2 |
| 20260502163114 | 76 | 113 | 1.7 | 6.1 | 0.00 | 0.00 | 0.00 | 26 | 1018.3 |
| 20260502162058 | 77 | 156 | 1.7 | 6.1 | 0.00 | 0.00 | 0.00 | 26 | 1018.3 |
| 20260502161019 | 77 | 93 | 1.7 | 6.1 | 0.00 | 0.00 | 0.00 | 26 | 1018.4 |
| 20260502160123 | 77 | 142 | 2.6 | 6.1 | 0.00 | 0.00 | 0.00 | 25 | 1018.5 |
| 20260502152116 | 79 | 129 | 1.7 | 5.2 | 0.00 | 0.00 | 0.00 | 24 | 1018.6 |
| 20260502151037 | 79 | 137 | 2.6 | 8.7 | 0.00 | 0.00 | 0.00 | 23 | 1018.4 |
| 20260502140120 | 80 | 125 | 2.6 | 7.0 | 0.00 | 0.00 | 0.00 | 23 | 1019.1 |
| 20260502123043 | 81 | 106 | 2.6 | 6.1 | 0.00 | 0.02 | 0.00 | 22 | 1020.0 |
| 20260502122147 | 79 | 27 | 0.9 | 2.6 | 0.00 | 0.02 | 0.00 | 25 | 1020.1 |
| 20260502121028 | 78 | 131 | 1.7 | 5.2 | 0.00 | 0.02 | 0.00 | 27 | 1020.5 |
| 20260502115156 | 77 | 111 | 1.7 | 3.5 | 0.00 | 0.02 | 0.00 | 29 | 1020.8 |
| 20260502114037 | 77 | 258 | 1.7 | 3.5 | 0.00 | 0.02 | 0.00 | 31 | 1020.8 |
| 20260502113102 | 76 | 308 | 0.9 | 2.6 | 0.00 | 0.02 | 0.00 | 32 | 1021.1 |
| 20260502112022 | 77 | 291 | 1.7 | 3.5 | 0.00 | 0.02 | 0.00 | 32 | 1021.3 |
| 20260502111047 | 75 | 320 | 0.9 | 3.5 | 0.00 | 0.02 | 0.00 | 33 | 1021.5 |
| 20260502110111 | 76 | 245 | 0.9 | 2.6 | 0.00 | 0.02 | 0.00 | 34 | 1021.7 |
| 20260502105031 | 75 | 355 | 0.0 | 1.7 | 0.00 | 0.02 | 0.00 | 33 | 1021.9 |
| 20260502104056 | 74 | 347 | 0.9 | 3.5 | 0.00 | 0.02 | 0.00 | 32 | 1022.2 |
| 20260502103016 | 74 | 28 | 0.9 | 1.7 | 0.00 | 0.02 | 0.00 | 35 | 1022.3 |
| 20260502102041 | 73 | 249 | 1.7 | 3.5 | 0.00 | 0.02 | 0.00 | 34 | 1022.6 |
| 20260502101105 | 73 | 337 | 1.7 | 2.6 | 0.00 | 0.02 | 0.00 | 35 | 1022.9 |
| 20260502100105 | 71 | 301 | 0.9 | 3.5 | 0.00 | 0.02 | 0.00 | 36 | 1023.0 |
| 20260502091020 | 68 | 291 | 0.9 | 2.6 | 0.00 | 0.02 | 0.00 | 41 | 1023.9 |
| 20260502071057 | 61 | 80 | 0.9 | 2.6 | 0.00 | 0.02 | 0.00 | 47 | 1025.7 |
| 20260502070057 | 60 | 85 | 0.9 | 5.2 | 0.00 | 0.02 | 0.00 | 46 | 1025.8 |
| 20260502065121 | 60 | 81 | 0.9 | 3.5 | 0.00 | 0.02 | 0.00 | 46 | 1025.8 |
| 20260502064106 | 59 | 91 | 0.9 | 3.5 | 0.00 | 0.02 | 0.00 | 49 | 1025.8 |
| 20260502063026 | 57 | 74 | 1.7 | 5.2 | 0.00 | 0.02 | 0.00 | 53 | 1025.9 |
| 20260502062051 | 56 | 65 | 0.9 | 1.7 | 0.00 | 0.02 | 0.00 | 54 | 1026.0 |
| 20260502061115 | 55 | 79 | 1.7 | 7.0 | 0.00 | 0.02 | 0.00 | 54 | 1026.1 |
| 20260502060035 | 53 | 110 | 1.7 | 5.2 | 0.00 | 0.02 | 0.00 | 59 | 1026.0 |